Tracking 19224 objects as of 23-Jul-2018
HD Live streaming from Space Station
objects crossing your sky now

GLOBALSTAR M024

Track GLOBALSTAR M024 now!
10-day predictions
GLOBALSTAR M024 is classified as:


NORAD ID: 25883
Int'l Code: 1999-043A
Perigee: 2,116.4 km
Apogee: 2,118.1 km
Inclination: 52.0 °
Period: 129.7 minutes
Semi major axis: 8488 km
RCS: 2.6378 m2 (large)
Launch date: August 17, 1999
Source: Globalstar (GLOB)
Launch site: AIR FORCE EASTERN TEST RANGE (AFETR)
aabbcc
Your satellite tracking list
Your tracking list is empty




NASA's NSSDC Master Catalog

Two Line Element Set (TLE):
1 25883U 99043A   18203.60387617 -.00000081 +00000-0 -58030-3 0  9993
2 25883 052.0026 310.0091 0000997 273.6219 185.2643 11.10132923834829
Source of the keplerian elements: AFSPC